User: anonymous   Login
Location: Valley View Observatory
(41.0081°N, 76.5874°W)
Time: 16:43:13
(UTC-04:00)
Language:

Cosmos 2237 Rocket - Orbit

View from above orbital plane
View from above orbital plane
View from above satellite
View from above satellite

Ground track
Ground track

The orbit data is extracted from the following two-line orbital elements,

1 22566U 93016B   16145.52266623 +.00000140 +00000-0 +97116-4 0  9992
2 22566 071.0053 162.7416 0010270 353.2089 006.8892 14.14924522196289
Epoch (UTC): 24 May 2016 12:32:38
Eccentricity: 0.0010270
inclination: 71.0053°
perigee height: 835 km
apogee height: 850 km
right ascension of ascending node: 162.7416°
argument of perigee: 353.2089°
revolutions per day: 14.14924522
mean anomaly at epoch: 6.8892°
orbit number at epoch: 19628

The dashed part of the orbit path shows where the satellite is in the earth's shadow,  

DLR